Weather History for Gwinn, MI

Change the Weather History Date:

Wednesday, July 3, 2013

  Actual Average (KESC) Record (KESC)
Temperature  
Mean Temperature 66 °F -  
Max Temperature 84 °F 72 °F 90 °F (1966)
Min Temperature 47 °F 56 °F 42 °F (1968)
Growing Degree Days 16 (Base 50)    
Moisture  
Dew Point 45 °F    
Average Humidity 62    
Maximum Humidity 87    
Minimum Humidity 25    
Precipitation  
Precipitation 0.00 in - - ()
Sea Level Pressure  
Sea Level Pressure 30.09 in    
Wind  
Wind Speed 2 mph (South)    
Max Wind Speed 12 mph    
Max Gust Speed -    
Visibility 10 miles    
Events      
Averages and records for this station are not official NWS values.
T = Trace of Precipitation, MM = Missing Value Source: NWS Daily Summary

Daily Weather History Graph

Daily Weather History Graph

Search for Another Location

Airport:

Trip Planner

Search our weather history database for the weather conditions in past years. The results will help you decide how hot, cold, wet, or windy it might be!

Date:

Astronomy

Jul. 03, 2013 Rise Set
Actual Time 6:02 AM EDT 9:44 PM EDT
Civil Twilight 5:24 AM EDT 10:23 PM EDT
Nautical Twilight 4:32 AM EDT 11:14 PM EDT
Astronomical Twilight 3:20 AM EDT 12:26 AM EDT
Moon 2:47 AM EDT (7/3) 5:49 PM EDT (7/3)
Length of Visible Light 16h 59m
Length of Day
15h 42m
Waning Crescent, 18% of the Moon is Illuminated
Jul 3
Waning Crescent
Jul 8
New
Jul 15
First Quarter
Jul 22
Full
Jul 29
Last Quarter

Hourly Weather History & Observations

Time (EDT) Temp. Dew Point Humidity Pressure Visibility Wind Dir Wind Speed Gust Speed Precip Events Conditions
12:16 AM 51.4 °F 42.1 °F 70% 30.13 in 10.0 mi Calm Calm - N/A   Clear
12:36 AM 49.6 °F 42.1 °F 75% 30.13 in 10.0 mi Calm Calm - N/A   Clear
12:57 AM 49.3 °F 42.8 °F 78% 30.13 in 10.0 mi Calm Calm - N/A   Clear
1:16 AM 49.3 °F 42.8 °F 78% 30.12 in 10.0 mi Calm Calm - N/A   Clear
1:36 AM 49.1 °F 42.6 °F 78% 30.12 in 10.0 mi Calm Calm - N/A   Clear
1:57 AM 48.9 °F 42.1 °F 77% 30.12 in 10.0 mi Calm Calm - N/A   Clear
2:16 AM 47.8 °F 41.9 °F 80% 30.11 in 10.0 mi Calm Calm - N/A   Clear
2:36 AM 47.5 °F 41.9 °F 81% 30.11 in 10.0 mi Calm Calm - N/A   Clear
2:56 AM 48.2 °F 42.8 °F 82% 30.11 in 10.0 mi Calm Calm - N/A   Clear
3:16 AM 47.8 °F 42.1 °F 80% 30.11 in 10.0 mi Calm Calm - N/A   Clear
3:37 AM 49.3 °F 42.3 °F 77% 30.11 in 10.0 mi Calm Calm - N/A   Clear
3:56 AM 48.9 °F 42.4 °F 78% 30.10 in 10.0 mi Calm Calm - N/A   Clear
4:16 AM 47.5 °F 41.9 °F 81% 30.10 in 10.0 mi Calm Calm - N/A   Clear
4:36 AM 48.2 °F 42.3 °F 80% 30.10 in 10.0 mi Calm Calm - N/A   Clear
4:56 AM 47.8 °F 42.3 °F 81% 30.10 in 10.0 mi Calm Calm - N/A   Mostly Cloudy
5:17 AM 48.4 °F 42.4 °F 80% 30.10 in 10.0 mi Calm Calm - N/A   Overcast
5:36 AM 48.4 °F 43.3 °F 83% 30.10 in 10.0 mi Calm Calm - N/A   Overcast
5:56 AM 50.2 °F 44.2 °F 80% 30.10 in 10.0 mi Calm Calm - N/A   Overcast
6:50 AM 50.0 °F 46.4 °F 87% 30.11 in 10.0 mi Calm Calm - N/A   Clear
7:50 AM 53.6 °F 48.2 °F 82% 30.12 in 10.0 mi Calm Calm - N/A   Clear
8:50 AM 59.0 °F 48.2 °F 67% 30.13 in 10.0 mi Calm Calm - N/A   Clear
9:50 AM 64.4 °F 46.4 °F 52% 30.14 in 10.0 mi Calm Calm - N/A   Mostly Cloudy
10:50 AM 69.8 °F 41.0 °F 35% 30.13 in 10.0 mi SW 4.6 mph - N/A   Clear
11:55 AM 73.4 °F 42.8 °F 33% 30.12 in 10.0 mi ESE 8.1 mph - N/A   Clear
12:50 PM 73.4 °F 42.8 °F 33% 30.11 in 10.0 mi ESE 3.5 mph - N/A   Clear
1:50 PM 75.2 °F 42.8 °F 31% 30.09 in 10.0 mi South 9.2 mph - N/A   Clear
2:50 PM 77.0 °F 41.0 °F 28% 30.08 in 10.0 mi Calm Calm - N/A   Clear
3:45 PM 84.2 °F 44.6 °F 25% 30.08 in 10.0 mi SSW 11.5 mph - N/A   Scattered Clouds
4:50 PM 77.0 °F 44.6 °F 32% 30.06 in 10.0 mi SSW 6.9 mph - N/A   Scattered Clouds
5:50 PM 77.0 °F 46.4 °F 34% 30.05 in 10.0 mi SE 6.9 mph - N/A   Clear
6:50 PM 77.0 °F 48.2 °F 36% 30.03 in 10.0 mi South 5.8 mph - N/A   Clear
7:50 PM 75.2 °F 50.0 °F 41% 30.03 in 10.0 mi South 8.1 mph - N/A   Clear
8:50 PM 73.4 °F 50.0 °F 44% 30.04 in 10.0 mi South 9.2 mph - N/A   Clear
9:45 PM 69.8 °F 50.0 °F 49% 30.03 in 10.0 mi South 5.8 mph - N/A   Clear
10:16 PM 67.3 °F 50.9 °F 56% 30.03 in 10.0 mi South 3.5 mph - N/A   Clear
10:37 PM 66.6 °F 50.9 °F 57% 30.04 in 10.0 mi South 4.6 mph - N/A   Clear
10:56 PM 65.8 °F 50.9 °F 58% 30.04 in 10.0 mi South 5.8 mph - N/A   Scattered Clouds
11:17 PM 64.8 °F 51.1 °F 61% 30.04 in 10.0 mi South 4.6 mph - N/A   Clear
11:36 PM 64.2 °F 50.9 °F 62% 30.05 in 10.0 mi South 6.9 mph - N/A   Scattered Clouds
11:56 PM 63.7 °F 50.0 °F 61% 30.04 in 10.0 mi SSW 4.6 mph - N/A   Overcast